Miscellaneous Local Product
Issued by NWS North Platte, NE

Home | Current Version | Previous Version | Text Only | Print | Product List | Glossary On
Versions: 1 2 3 4 5 6 7 8 9 10 11 12 13 14 15 16 17 18 19 20 21 22 23 24 25 26 27 28 29 30 31 32 33 34 35 36 37 38 39 40 41 42 43 44 45 46 47 48 49 50
000
AXUS43 KLBF 230810
MISLBF


WESTERN AND NORTH CENTRAL NEBRASKA HOURLY WEATHER ROUNDUP
NATIONAL WEATHER SERVICE NORTH PLATTE NE
300 AM CDT THU MAR 23 2017

NOTE: "FAIR" INDICATES FEW OR NO CLOUDS BELOW 12,000 FEET WITH NO
SIGNIFICANT WEATHER AND/OR OBSTRUCTIONS TO VISIBILITY.

NOTE: STATIONS NOT REPORTING VARIABLES SUCH AS SKY/WEATHER OR
PRESSURE ARE PROVIDED BY RAWS AND APRS NETWORKS AND ARE NOT UNDER
NATIONAL WEATHER SERVICE QUALITY CONTROL.

...OBSERVATIONS IN AND NEAR THE EASTERN PANHANDLE OF NEBRASKA...

CITY           SKY/WX    TMP DP  RH WIND       PRES   REMARKS
PINE RIDGE     PTCLDY    48  36  63 SW12G23   29.75F
CHADRON        MOCLDY    48  36  63 SE13      29.71S
ALLIANCE       CLOUDY    42  33  70 S16       29.77F
SIDNEY         CLOUDY    39  33  79 SE10      29.78F WCI  32
CRESCENT LAKE    N/A     41  34  75 SE10G18     N/A
$$

...OBSERVATIONS IN NORTHERN NEBRASKA AND FAR SOUTHERN SOUTH DAKOTA...

CITY           SKY/WX    TMP DP  RH WIND       PRES   REMARKS
WINNER         FAIR      47  29  49 S24G35    29.83F
VALENTINE      PTCLDY    43  28  55 S15       29.85F
THEDFORD       CLOUDY    44  34  67 S14G20    29.89S
AINSWORTH      PTCLDY    42  32  67 S17       29.87F
O`NEILL        CLOUDY    45  32  60 S9        29.93F
ORD            PTCLDY    45  27  49 SE10      29.95F
BROKEN BOW     CLOUDY    44  32  62 S13       29.92F
VALENTINE NWR    N/A     40  29  64 S14         N/A  WCI  32
HALSEY           N/A     43  31  61 S9G18       N/A
BUTTE            N/A     37  28  71 SE6         N/A  WCI  32
CHAMBERS         N/A     43  28  54 S3          N/A
EWING            N/A     45  31  58 S7          N/A
$$

...OBSERVATIONS IN SOUTHWEST NEBRASKA AND FAR NORTHEAST COLORADO...

CITY           SKY/WX    TMP DP  RH WIND       PRES   REMARKS
WRAY           FAIR      45  37  76 SE9       29.80F
HOLYOKE        FAIR      41  36  81 SE9       29.80F
IMPERIAL       CLOUDY    40  35  83 SE14      29.83F WCI  32
OGALLALA       CLOUDY    41  35  77 SE8       29.84F
NORTH PLATTE   CLOUDY    43  35  73 SE12      29.88F
MCCOOK         CLOUDY    44  37  76 SE12      29.89F
LEXINGTON      MOCLDY    44  32  63 SE12      29.93F
STAPLETON        N/A     40  33  76 CALM        N/A
GOTHENBURG       N/A     44  33  66 SE7         N/A
CALLAWAY         N/A     42  34  74 S12         N/A
$$

...OBSERVATIONS IN CENTRAL LINCOLN COUNTY AREA...

CITY           SKY/WX    TMP DP  RH WIND       PRES   REMARKS
N.P. AIRPORT   CLOUDY    43  35  73 SE12      29.88F
N.P. DOWNTOWN    N/A     43  36  77 MISG        N/A
N.P. SOUTHEAST   N/A     42  35  77 SE7G14      N/A
N.P. HILLCREST   N/A     43  37  78 SE12        N/A
$$

...SOME OBSERVATIONS FROM AROUND THE REGION...

CITY           SKY/WX    TMP DP  RH WIND       PRES   REMARKS
DENVER         CLOUDY    55  35  47 S14       29.73F
LIMON          CLOUDY    39  38  96 SE5       29.82F
ASPEN          CLOUDY    48  27  44 W15G25    29.90R
LARAMIE        CLOUDY    36  23  59 E3        29.79F
GILLETTE       CLOUDY    45  40  82 S5        29.72F
CHEYENNE       CLOUDY    45  37  73 S5        29.77F
SCOTTSBLUFF    CLOUDY    47  36  65 E15       29.75F
GRAND ISLAND   MOCLDY    47  29  49 SE15G22   29.99F
OMAHA          CLOUDY    45  22  40 SE16      30.10F
SIOUX FALLS    CLOUDY    41  26  55 S16       30.04F
PIERRE         MOCLDY    43  30  60 SE14      29.81F
RAPID CITY     CLOUDY    49  38  65 S7        29.71F
BISMARCK       CLOUDY    34  28  79 E9        29.82F WCI  27
KANSAS CITY    CLOUDY    50  26  39 SE14      30.14F
HILL CITY      MOCLDY    45  38  76 SE9       29.93F
WICHITA        CLOUDY    56  48  74 SE14      30.02S
DODGE CITY     CLOUDY    55  51  86 S21G30    29.93F FOG
OKLAHOMA CITY  PTCLDY    61  56  83 S17       29.99F
DALLAS         CLEAR     70  61  73 S15       30.03F
AMARILLO       CLEAR     57  52  83 SE16      29.92F
$$




USA.gov is the U.S. government's official web portal to all federal, state and local government web resources and services.